カタログに戻る

COSMOS 1481 DEB

LostHEO
NORAD 26633·DEBRIS·🇷🇺 Russia

打ち上げ Jul 8, 1983 から Plesetsk Cosmodrome

Loading…

次のパス (今後24時間)

TLE

古いSource: Space-Track

元期: Jan 18, 2002, 14:13 UTC

1 26633U 83070G   02018.59257852 +.00001148 +00000-0 +10000-3 0  9990
2 26633 066.5019 219.6367 6996189 146.8748 288.4987 02.00493453008889

AllMySatでCOSMOS 1481 DEBをリアルタイム追跡

Download on the App Store